P/2019 M2 ( ATLAS )

Japanese version
Home page
Updated on July 19, 2019

---------------------------------------------------------------------

* Profile

Discovery Date June 29, 2019
Magnitude 18.3 mag
Discoverer Asteroid Terrestrial-Impact Last Alert System (ATLAS) search program

* Orbital Elements

Epoch 2019 June 6.0 TT = JDT 2458640.5                                          
T 2019 June 22.66921 TT                                 MPCLINUX                
q   1.0633346            (2000.0)            P               Q                  
n   0.18777143     Peri.  332.52169     +0.18400837     +0.96839068             
a   3.0202974      Node   307.59510     -0.85830614     +0.07480813             
e   0.6479371      Incl.   12.27133     -0.47901094     +0.23795639             
P   5.25                                                                        
From 96 observations 2019 June 29-July 17, mean residual 0".6.                  

* Magnitudes Graph

        m1 = 21.0 + 5 log d + 10.0 log r

---------------------------------------------------------------------

The orbital elements are published on M.P.E.C. 2019-O08.
The magnitudes graphs are made with Comet for Windows.

---------------------------------------------------------------------

Copyright(C) Seiichi Yoshida (comet@aerith.net). All rights reserved.